Lid_Strength_Index
4 4 3 3 3 2 2 2 1 1 1 1 1 1 1 0 -0 1 0 0 0 0 1 0 -1 -0 -1 -1 -1 -1 -0 -0 0
5 4 4 3 3 2 2 2 1 1 1 1 1 1 0 0 -0 0 0 -0 -0 0 -0 -0 -0 -0 -0 -0 -0 -0 -0 0 0
5 4 3 3 3 3 2 1 1 1 1 1 1 0 -0 -0 0 -0 -0 -0 -0 -0 -0 -0 -0 -0 -0 -0 -0 -0 -0 0 -0
5 4 4 3 3 2 2 1 1 1 1 1 1 0 0 0 0 -0 -0 0 -0 -0 -0 -0 -0 -0 -0 0 -0 -0 0 0 -0
4 4 3 3 2 2 2 2 2 1 1 1 1 0 0 0 -0 -0 0 0 -0 -1 -0 -1 -0 -0 0 0 -0 -0 0 0 0
4 4 4 3 3 3 2 2 1 1 1 1 0 0 0 0 0 0 0 -0 -0 -1 -1 -1 -1 -0 0 0 -0 0 0 0 0
4 4 4 3 3 2 2 2 1 1 1 0 0 0 0 1 0 0 0 -0 -0 -0 -1 -1 -1 -1 -1 -0 -0 -0 -0 0 0
5 4 4 3 3 2 2 2 1 1 1 0 0 1 1 0 0 -0 -0 -0 -0 -0 -0 -0 -1 -0 -1 -1 -0 0 -0 0 0
5 5 4 3 3 2 2 2 1 1 1 1 0 1 1 0 0 0 0 -0 0 -0 0 -0 -0 -0 -0 -0 0 1 1 0 0
5 4 4 3 3 2 2 2 1 1 1 0 1 1 1 0 0 0 0 0 0 0 0 0 0 0 0 0 -0 1 2 1 0
4 4 3 3 2 2 1 1 1 1 1 0 1 1 1 1 1 1 1 0 1 0 0 0 1 0 0 0 0 2 3 1 -0
3 3 3 2 2 1 1 1 1 1 1 1 1 1 1 1 0 1 1 1 1 1 1 1 1 0 0 1 0 3 3 1 0
3 2 2 2 2 1 1 1 1 1 2 1 1 1 1 1 1 1 1 1 1 1 1 1 1 1 1 1 1 2 4 2 0
2 2 2 1 1 2 1 1 1 1 1 2 1 1 1 1 1 2 1 2 3 3 2 1 1 1 1 1 0 1 4 5 1
3 3 2 2 2 2 1 1 1 1 2 1 2 2 2 1 0 1 1 1 2 2 2 3 2 2 1 1 0 2 2 4 5
3 3 2 2 2 2 2 2 1 2 1 2 2 2 2 2 2 2 2 3 3 4 3 4 3 2 2 2 1 1 3 4 4
3 3 2 3 4 4 3 2 1 1 2 2 3 3 3 3 3 3 3 4 4 4 4 4 3 2 3 2 2 1 0 0 0
3 4 4 4 5 4 4 2 1 1 2 2 3 3 3 3 3 3 3 3 4 4 4 4 4 4 4 4 3 2 4 4 1
4 4 4 4 4 4 3 3 2 1 1 1 2 3 3 3 3 3 4 4 4 5 6 7 8 9 8 4 5 6 7 9 9
5 4 4 4 4 4 3 3 2 1 1 2 2 2 3 3 4 4 4 4 5 6 4 6 7 8 8 9 9 10 10 10 10